Location: La Penne
(43.2795°N, 5.5163°E)
Time: 19:32:57
(UTC+00:00)

Daily predictions for brighter satellites

Satellite Brightness Start Highest point End
(mag) Time Altitude Azimuth Time Altitude Azimuth Time Altitude Azimuth
Cosmos 2322 Rocket 3.2 17:52:44 10° SW 17:58:10 50° WNW 18:03:38 10° NNE
Lacrosse 4 Rocket 2.0 17:55:13 10° S 17:59:21 42° ESE 18:03:34 10° NE
Meteor 2-4 Rocket 3.9 17:53:40 10° N 17:59:30 57° ENE 18:05:19 10° SSE
CZ-2D R/B 3.6 17:56:16 10° S 18:00:03 73° WSW 18:03:53 10° NNW
DELTA 2 R/B (1) 4.3 17:54:56 10° SW 18:00:05 40° SSE 18:05:14 10° E
GP-B 3.8 17:56:52 10° SE 18:00:48 32° E 18:04:45 10° NNE
Nadezhda 3 Rocket 4.1 17:55:50 10° N 18:02:14 85° E 18:08:36 10° S
ARGOS 3.5 17:58:07 10° SE 18:03:13 44° ENE 18:08:21 10° N
Cosmos 1869 Rocket 4.4 18:03:25 10° SSE 18:07:10 29° E 18:10:57 10° NNE
Cosmos 2219 Rocket 2.5 18:03:15 10° S 18:08:31 44° ESE 18:13:49 10° NE
CZ-4 R/B 1.3 18:04:44 10° SSE 18:08:35 68° ENE 18:12:30 10° N
Cosmos 2154 Rocket 4.3 18:05:01 10° SSW 18:11:13 77° W 18:17:27 10° N
CZ-4B R/B 2.1 18:08:28 10° N 18:11:29 54° WNW 18:14:33 10° SSW
FALCON 9 DEB 4.3 18:11:35 10° NW 18:14:17 25° NNE 18:16:46 11° ENE
Cosmos 1238 Rocket 4.2 18:12:42 10° SE 18:15:21 17° E 18:17:46 10° NE
ERS-2 2.4 18:12:34 10° NNE 18:16:06 44° E 18:19:36 10° S
CZ-2C R/B 3.0 18:11:27 10° NNE 18:16:33 40° E 18:21:29 10° SSE
Cosmos 1689 Rocket 2.2 18:14:50 10° NNE 18:17:38 46° E 18:20:26 10° S
SL-08 RB Rocket 4.2 18:13:58 10° SE 18:18:08 38° ENE 18:22:24 10° N
Cosmos 1378 4.5 18:16:48 10° NNE 18:19:37 20° ENE 18:22:25 10° ESE
NOSS 3-2 (A) 3.9 18:16:08 10° S 18:21:01 33° ESE 18:26:27 10° NE
CREW DRAGON DEMO-1 DEB 2.6 18:18:40 10° SW 18:21:28 65° SE 18:23:59 12° ENE
HJ-1C 3.5 18:19:30 10° SSE 18:22:42 51° ENE 18:25:55 10° N
COSMOS 2428 2.9 18:17:47 10° S 18:23:14 49° ESE 18:28:41 10° NE
FALCON 9 DEB 4.4 18:21:00 10° NW 18:23:45 25° NNE 18:25:51 14° ENE
SL-16 R/B 4.4 18:22:04 10° WSW 18:26:45 26° NW 18:31:29 10° N
SL-8 Rocket 4.0 18:26:16 10° S 18:32:23 64° E 18:38:29 10° NNE
CENTAUR R/B 3.2 18:28:03 10° SSE 18:32:47 27° ESE 18:38:11 10° NE
USA 307 4.4 18:29:33 10° NW 18:33:04 24° NNE 18:35:52 13° ENE
USA 306 4.4 18:30:48 10° NW 18:34:23 25° NNE 18:37:06 14° ENE
ATLAS CENTAUR R/B 3.7 18:32:09 10° W 18:34:52 19° NW 18:37:37 10° N
Cosmos 1743 4.0 18:36:16 10° SE 18:39:10 20° E 18:42:06 10° NE
Cosmos 1666 2.7 18:37:09 10° SSW 18:40:51 78° W 18:44:37 10° N
USA 308 4.3 18:40:22 10° NW 18:43:58 26° NNE 18:46:15 17° ENE
CSL-04 Rocket 3.6 18:38:36 10° SSE 18:44:08 77° ENE 18:49:38 10° N
Cosmos 2322 3.9 18:38:25 10° SSW 18:44:08 77° WNW 18:49:53 10° NNE
Cosmos 1703 Rocket 3.9 18:40:08 10° NNW 18:44:30 69° W 18:48:48 10° S
Cosmos 1339 Rocket 4.5 18:40:26 10° N 18:46:42 82° E 18:53:03 10° S
Okean-O 3.3 18:43:01 10° S 18:47:22 57° W 18:51:45 10° NNW
Cosmos 1844 Rocket 3.9 18:43:13 10° NW 18:48:27 43° WSW 18:53:39 10° S
BREEZE-M DEB (TANK) 2.4 18:46:36 10° SW 18:48:59 69° SSE 18:50:06 30° ENE
Cosmos 2366 rocket 4.0 18:44:19 10° S 18:50:36 72° E 18:56:57 10° NNE
H-2A R/B 3.1 18:46:07 10° S 18:51:24 51° W 18:56:42 10° NNW
CSL-04 Debris 4.2 18:46:17 10° SSE 18:51:44 86° WSW 18:57:15 10° NNW
ASTEX 1 3.8 18:48:14 10° NNE 18:52:50 39° E 18:57:24 10° SSE
Cosmos 1777 Rocket 4.1 18:47:52 10° NNW 18:53:07 79° WSW 18:58:18 10° SSE
SJ-6B 3.5 18:52:44 25° ESE 18:54:22 34° ENE 18:58:01 10° N
Ariane Rocket 3.6 18:55:34 23° ESE 18:57:58 35° ENE 19:02:34 10° N
USA 186 2.5 18:59:36 27° NNE 18:59:36 27° NNE 19:01:10 10° N
Cosmos 2221 Rocket 3.9 18:55:46 10° N 19:00:00 42° ENE 19:02:10 25° SE
Cosmos 1763 Rocket 4.3 18:56:17 10° SSE 19:00:45 28° E 19:05:13 10° NE
OBJECT-B 2.0 19:02:09 26° NE 19:02:09 26° NE 19:04:11 10° N
NOSS 3-2 (C) 3.7 18:57:36 10° S 19:02:40 39° ESE 19:08:10 11° NE
Meteor 1-11 Rocket 3.7 18:58:55 10° S 19:04:36 87° W 19:10:13 10° N
Okean 1-7 4.5 19:04:29 10° NNW 19:08:32 39° W 19:12:32 10° SSW
Cosmos 2360 Rocket 4.3 19:04:09 10° WSW 19:08:52 27° NW 19:13:37 10° N
Cosmos 468 Rocket 4.4 19:07:30 10° SSE 19:12:21 37° ESE 19:17:12 10° NE
FALCON 9 DEB 3.1 19:10:36 10° NW 19:13:45 56° NNE 19:13:45 56° NNE
Cosmos 1821 Rocket 4.1 19:09:00 10° SSE 19:14:54 47° E 19:20:45 10° NNE
Cosmos 1943 Rocket 4.1 19:12:19 10° NNE 19:15:07 14° NE 19:15:25 14° NE
Cosmos 2237 Rocket 2.3 19:10:11 10° S 19:15:37 49° ESE 19:21:06 10° NE
Cosmos 1544 2.9 19:13:14 10° S 19:16:50 63° E 19:20:28 10° NNE
SJ 16-02 1.2 19:13:10 10° NNW 19:17:35 73° ENE 19:19:19 36° SSE
Cosmos 1727 Rocket 3.9 19:11:53 10° N 19:18:05 77° E 19:24:19 10° SSE
MOS 1 4.4 19:15:42 26° SE 19:18:45 55° ENE 19:24:17 10° N
DMSP B5D2-2 4.0 19:13:42 10° NNE 19:18:57 88° WNW 19:24:09 10° SSW
Cosmos 1536 3.3 19:15:17 10° SSW 19:19:13 61° W 19:23:10 10° N
Cosmos 2278 Rocket 2.2 19:14:09 10° NNW 19:19:47 63° ENE 19:22:11 34° SE
USA 81 4.1 19:15:40 10° SSE 19:20:43 51° E 19:25:49 10° NNE
FALCON 9 DEB 3.0 19:18:28 10° NW 19:21:22 68° NNW 19:21:22 68° NNW
Okean 3 4.1 19:17:38 10° NNW 19:21:51 57° W 19:26:02 10° S
SL-4 R/B 2.5 19:19:00 10° WNW 19:22:16 39° SW 19:22:57 34° S
SPOT 3 Rocket 4.4 19:24:24 31° ENE 19:24:24 31° ENE 19:28:41 10° N
SeaSat 1 2.6 19:20:43 10° NNE 19:25:39 74° WNW 19:30:34 10° SW
Abrixas rocket 3.7 19:25:25 10° WNW 19:26:46 27° W 19:26:46 27° W
MetOp-A 4.2 19:23:18 10° SSE 19:28:39 81° WSW 19:34:02 10° NNW
Resurs 01 Rocket 3.1 19:31:41 23° NNE 19:31:41 23° NNE 19:33:57 10° N
SME Rocket 3.7 19:26:33 10° NNE 19:33:35 86° ESE 19:38:15 10° SSW
Meteor 2-20 Rocket 4.3 19:28:06 10° N 19:34:13 68° E 19:37:10 32° SSE
Cosmos 2333 Rocket 3.8 19:31:09 10° WSW 19:36:19 35° NW 19:41:33 10° N
USA 234 3.2 19:33:09 29° ENE 19:36:35 61° SE 19:43:02 10° SW
Gbstr 26 Del rocket 3.8 19:32:33 10° NW 19:37:18 55° NNE 19:38:19 48° ENE
Lacrosse 4 Rocket 3.8 19:34:35 10° WSW 19:38:12 24° NW 19:41:52 10° N
Cosmos 1937 Rocket 4.2 19:35:41 10° N 19:39:49 37° NE 19:39:49 37° NE
Cosmos 2123 Rocket 4.3 19:35:20 10° N 19:41:02 42° ENE 19:41:02 42° ENE
USA 238 DEB 3.6 19:35:56 10° SW 19:42:29 83° NW 19:49:22 10° NE
USA 238 3.6 19:36:02 10° SW 19:42:34 83° NW 19:49:28 10° NE
Resurs 1-3 3.8 19:45:27 59° NNE 19:45:27 59° NNE 19:49:11 10° N
DELTA 2 R/B (1) 3.6 19:40:40 10° WSW 19:46:08 60° S 19:46:36 58° SSE
IRS-1A Rocket 4.2 19:46:16 33° S 19:48:54 83° WSW 19:54:27 10° NNW
Cosmos 2219 Rocket 4.0 19:47:45 10° WSW 19:52:36 30° NW 19:57:31 10° N
USA 305 3.8 19:55:36 10° NW 19:58:46 45° NNW 19:58:46 45° NNW
Cosmos 1980 3.9 19:54:44 10° SSW 20:00:21 71° WNW 20:06:01 10° NNE
Cosmos 1733 Rocket 3.9 19:57:48 10° SSW 20:02:00 49° WNW 20:06:16 10° N
NOSS 3-2 (A) 4.3 20:06:09 10° WSW 20:11:35 45° NW 20:17:50 10° NNE
USA 307 4.3 20:09:22 10° NW 20:12:00 36° NW 20:12:00 36° NW
USA 306 4.3 20:10:37 10° NW 20:13:13 36° NW 20:13:13 36° NW
Cosmos 2369 Rocket 4.1 20:15:46 10° N 20:18:00 18° NNE 20:18:00 18° NNE
Cosmos 1898 Rocket 3.9 20:14:55 10° NNW 20:19:30 62° WNW 20:19:30 62° WNW
CENTAUR R/B 3.0 20:17:02 10° SW 20:22:50 57° NW 20:29:49 10° NNE
OBJECT-B 4.4 20:35:13 10° WNW 20:35:13 10° WNW 20:35:19 10° WNW
NOSS 3-2 (C) 4.5 20:48:08 10° WSW 20:53:29 40° NW 20:55:56 29° N
SJ 16-02 4.4 20:54:41 10° W 20:55:29 10° W 20:56:17 10° WSW
Cosmos 2237 Rocket 4.0 20:55:04 10° WSW 20:59:55 28° NW 21:04:48 10° N
Cosmos 1943 Rocket 3.8 20:54:18 10° NNW 20:56:57 29° NNW 20:56:57 29° NNW
Cosmos 2278 Rocket 4.3 20:59:25 10° NW 21:03:19 19° W 21:04:05 19° WSW
Resurs 01 Rocket 4.4 21:09:15 15° NW 21:09:15 15° NW 21:10:19 10° NW
USA 234 4.1 21:20:31 45° NW 21:20:31 45° NW 21:25:41 10° W
